Dewpoint
51 51 51 50 50 50 50 51 52 51 51 52 52 52 52 53 54 53 53 53 54 54 53 53 53 53 52 52 52 52 53 49 47 45 44 45 48 60 59 60 59 55 56 29 29 31 27 29 30 31 29 27 25 20 14 12 12 13 12 10 12 12 9 6 -1 -5 -8 -11 0 6 7 6 4 28 26 31 33 30 49 50 54 61 62 58 62 65 65 65
50 51 51 51 51 51 51 51 51 51 51 51 52 52 52 52 53 53 53 53 53 54 53 53 53 53 52 53 52 52 50 46 45 44 42 46 56 56 58 61 59 57 53 29 26 30 26 26 29 31 30 26 22 17 13 10 13 12 11 11 9 8 9 5 -2 -5 -5 0 3 8 10 7 12 28 35 32 31 32 38 49 55 60 62 63 64 64 64 65
51 50 50 50 50 51 51 51 50 50 50 51 51 51 51 51 52 52 53 53 53 53 53 52 53 53 53 53 52 54 50 46 45 43 44 54 55 58 57 59 59 59 38 25 26 28 26 25 28 30 27 22 17 14 11 7 12 11 12 11 9 6 5 3 -1 -3 1 7 7 8 7 4 19 22 31 29 33 31 36 49 52 57 60 62 63 63 65 65
51 51 51 51 50 50 50 50 50 50 50 51 51 51 51 51 52 52 53 53 53 52 52 52 52 53 53 53 53 51 48 46 41 35 42 58 57 57 58 60 59 58 38 25 23 26 27 28 28 27 23 18 15 10 7 4 10 12 12 11 10 4 1 1 -0 2 3 6 8 9 7 5 8 7 29 32 39 42 46 47 50 54 58 61 63 64 65 65
51 51 51 51 51 51 50 50 50 50 51 51 51 51 52 52 52 53 53 53 52 53 53 52 52 52 53 53 53 50 47 40 35 39 53 59 58 58 59 59 62 42 35 24 23 22 26 26 25 22 20 17 11 7 4 4 7 12 10 8 8 6 -1 -2 1 3 4 5 7 8 6 0 9 11 12 30 32 37 40 45 47 54 58 60 62 63 65 65
50 51 51 51 51 51 51 51 51 51 51 51 51 51 51 51 52 53 53 53 52 53 53 53 52 52 52 53 50 48 42 26 35 39 60 60 59 60 60 63 61 38 28 23 23 25 22 22 21 19 18 16 10 5 4 3 6 10 10 7 6 3 2 1 3 5 4 5 8 9 7 2 4 6 10 20 30 33 39 40 49 52 57 61 63 64 65 65
50 50 50 50 51 51 51 51 51 51 51 51 51 51 51 51 51 51 52 53 53 53 53 52 52 52 53 53 49 47 43 34 33 49 63 60 62 60 60 60 57 38 27 23 26 27 19 17 17 15 15 13 9 5 3 5 7 10 8 8 7 5 1 -0 3 4 6 7 7 5 4 1 5 4 10 11 28 32 40 45 54 56 57 59 60 64 64 65
50 50 50 50 50 50 50 50 50 51 51 51 51 51 51 51 51 51 51 52 52 53 52 52 52 52 53 47 43 41 44 41 38 47 61 60 53 54 53 32 31 29 31 27 27 23 16 13 13 12 11 10 7 3 3 2 5 6 7 9 8 4 2 2 5 7 6 6 5 2 2 3 6 4 4 6 20 41 43 46 49 56 58 60 61 63 64 65
50 50 50 50 50 50 50 50 50 50 51 50 51 51 51 51 51 51 51 51 52 52 51 52 52 52 53 49 45 40 32 32 40 50 57 48 41 41 27 23 25 26 29 30 29 20 13 11 11 10 8 9 8 2 1 -0 1 4 5 7 8 6 4 3 3 6 6 4 2 1 2 4 6 3 1 4 17 30 42 44 47 52 56 57 60 62 63 64
50 50 50 50 50 50 50 50 50 50 50 50 50 51 51 51 50 50 51 51 51 51 52 52 52 52 49 46 42 37 33 36 44 46 42 39 30 33 25 21 20 22 24 28 26 18 11 8 7 8 8 7 5 1 1 -1 -1 6 7 6 5 5 4 5 8 8 6 4 2 0 0 2 3 2 0 6 8 28 29 46 46 51 52 56 59 60 63 64
49 50 50 50 50 50 50 50 50 50 50 50 50 50 50 51 50 50 50 50 51 51 52 52 52 51 47 44 39 33 26 26 40 42 35 33 28 26 23 25 20 20 23 25 21 17 13 10 7 7 7 5 4 3 2 0 -0 3 4 4 4 5 7 3 6 8 6 2 1 1 -0 -0 1 1 1 3 6 21 26 32 44 47 48 51 56 59 61 63
49 49 50 50 50 50 50 50 50 50 50 50 50 50 50 50 50 50 50 50 51 51 51 52 52 48 47 44 37 32 28 26 27 35 36 32 30 26 26 28 24 23 25 24 19 16 13 10 9 8 6 6 3 3 6 7 4 2 3 5 7 6 5 4 2 7 7 1 -0 2 -1 -3 -2 -1 2 3 2 21 23 24 42 43 44 48 53 57 58 61
49 49 49 49 50 50 50 50 50 50 50 50 50 50 50 50 51 51 50 50 51 51 51 51 51 47 47 40 33 35 33 28 25 36 38 33 33 30 29 29 26 24 24 20 17 16 14 13 12 10 10 8 9 3 4 5 6 6 6 6 7 3 2 3 -0 4 3 0 -0 -1 -1 -1 -2 -1 1 3 2 12 19 17 32 39 45 44 50 54 58 60
49 49 49 49 49 49 49 50 50 50 50 50 50 50 50 50 50 51 51 50 50 51 52 52 50 49 47 40 34 32 29 29 22 28 37 35 31 30 28 28 26 24 22 21 20 19 15 12 11 10 10 10 9 10 7 5 5 3 5 6 6 3 3 3 0 3 4 1 -0 -0 5 -0 -3 -3 -1 3 1 14 19 19 27 38 41 45 52 54 55 59
49 49 49 49 49 49 50 49 50 50 50 50 50 50 50 50 50 50 51 51 51 51 51 51 49 48 47 43 41 39 55 29 22 21 29 35 30 28 27 27 26 24 22 22 23 23 21 15 12 11 11 14 13 12 13 11 4 3 2 3 2 2 1 0 2 3 3 -0 -1 -1 5 -1 -4 -5 -3 1 3 17 20 21 25 30 43 46 47 49 54 59
49 49 49 49 49 49 49 49 50 50 50 50 50 50 51 51 50 50 51 51 51 53 50 49 48 46 42 39 35 51 35 27 22 20 24 33 33 28 27 25 24 23 22 22 23 22 21 16 12 10 10 12 14 14 13 11 6 3 3 11 2 -1 -2 -4 -4 -1 1 -3 -3 -3 -4 -3 -3 -4 -5 -1 -1 13 20 21 26 26 45 48 48 49 54 57
49 49 49 49 49 49 49 49 49 50 50 50 50 50 50 50 50 51 51 51 49 50 47 46 46 48 42 34 37 33 32 30 28 21 20 29 31 28 26 24 22 21 19 19 19 18 16 14 13 13 11 12 14 9 11 12 9 6 2 4 1 -2 -3 -6 -8 -7 -2 -3 -7 -4 -4 0 1 -5 8 3 -2 8 20 22 25 29 38 47 49 49 51 55
48 48 48 48 49 49 49 49 49 49 50 50 50 50 49 50 52 52 50 49 48 48 48 48 46 43 41 44 35 28 29 29 23 16 18 27 30 28 25 22 21 18 17 15 17 12 13 13 13 14 15 16 15 11 9 8 11 8 8 7 1 -3 -2 -7 -11 -7 -4 -2 -4 -1 2 1 -1 -3 10 1 -3 16 23 21 25 29 38 51 49 49 51 52
48 48 48 48 49 49 49 49 49 49 49 50 50 52 53 52 49 49 46 47 47 48 42 43 45 30 25 30 33 25 20 21 18 15 18 26 28 28 23 21 19 15 15 14 13 11 11 14 19 15 14 13 13 13 8 5 3 1 -0 2 1 -0 -7 -6 -6 -8 -4 -1 -4 -2 1 1 2 -1 9 20 17 21 19 26 27 29 38 48 46 45 49 49
49 48 48 49 48 49 49 49 49 49 50 48 45 46 50 50 49 50 49 47 44 40 35 31 42 35 30 29 26 22 23 24 21 20 23 28 27 25 22 17 15 14 13 16 14 15 15 14 15 13 12 14 18 17 15 6 2 2 8 10 -2 -3 -7 -5 -5 -7 -3 -3 1 3 1 0 2 0 8 19 23 23 20 23 28 28 32 37 44 45 47 49
48 48 49 48 49 49 49 49 49 49 49 47 46 42 32 21 24 28 32 35 45 41 34 29 27 36 33 30 26 22 23 23 21 23 26 29 26 24 19 13 12 16 12 10 18 18 16 16 14 15 15 17 19 20 22 17 14 6 13 14 2 -3 -2 -4 -7 -5 0 18 2 5 -2 1 6 6 3 18 21 20 22 23 28 25 27 36 45 46 46 50
48 48 48 49 48 49 49 49 49 49 50 47 45 37 28 25 24 29 29 25 25 25 34 37 34 30 28 26 26 26 23 21 20 21 25 28 24 20 14 9 9 10 12 12 17 17 16 16 17 16 19 21 23 24 19 19 18 17 15 12 8 2 -3 -1 -2 -0 1 9 8 1 3 4 7 7 6 11 24 25 25 26 27 27 28 36 42 42 45 47
48 48 48 48 48 48 49 49 49 49 47 44 41 38 31 23 29 23 26 26 26 26 22 18 20 26 29 29 23 25 24 20 19 17 22 27 23 17 9 6 9 7 9 14 16 20 18 14 18 15 21 21 20 24 24 22 23 20 18 14 11 7 -2 -3 19 1 11 17 14 11 9 12 13 14 14 16 12 26 24 23 24 26 35 40 40 40 42 54
48 48 48 48 48 48 49 49 49 48 48 40 31 26 25 24 23 18 29 28 24 24 22 22 22 21 21 26 24 22 24 23 20 16 24 25 20 15 8 5 4 5 5 9 13 16 15 17 15 16 17 19 21 24 25 22 18 22 21 15 10 7 3 -1 15 13 21 19 25 14 17 15 14 12 12 17 17 24 27 27 26 29 37 43 43 47 56 57
47 47 47 48 48 48 48 49 45 41 40 43 39 33 28 27 29 30 34 31 29 29 31 22 20 23 24 24 23 21 23 23 20 19 24 24 20 12 7 6 4 2 3 8 10 13 15 20 23 9 11 15 22 21 22 24 20 15 20 18 15 12 10 2 18 9 18 15 18 14 16 14 12 11 12 7 23 28 29 30 27 27 38 37 41 54 55 57
47 47 47 48 48 48 48 46 45 32 29 28 31 22 30 29 30 37 36 34 26 20 28 23 18 18 22 21 22 22 24 20 19 20 24 24 23 13 8 7 7 3 3 7 9 14 13 21 19 14 17 20 18 18 19 20 15 12 11 11 12 9 13 11 13 16 12 14 23 23 15 15 15 14 14 17 26 29 30 32 30 29 33 38 40 57 55 55
48 48 48 48 48 48 41 27 41 32 21 21 20 31 25 25 43 40 39 34 29 25 23 17 14 19 21 20 21 23 20 19 17 18 24 26 20 16 8 8 9 8 8 20 18 13 13 12 16 17 21 19 18 15 15 13 11 7 15 9 6 5 9 14 14 12 15 21 25 21 16 13 11 12 9 13 28 30 31 32 35 32 36 40 52 56 55 55
47 48 48 48 48 48 45 45 41 26 12 17 25 26 24 30 40 44 36 20 13 18 20 24 23 27 22 22 24 21 18 16 13 15 21 25 24 17 13 9 9 8 11 13 16 20 23 20 21 19 19 15 14 13 14 12 11 10 12 7 3 3 11 11 13 14 18 20 16 16 17 14 10 14 15 18 23 29 31 33 35 35 43 55 55 54 55 56
47 48 48 48 48 48 47 45 42 36 27 19 23 26 27 38 37 37 31 23 22 12 25 24 29 27 25 25 24 22 16 18 12 14 21 26 24 20 13 13 11 8 8 14 14 19 11 11 12 15 13 13 11 9 8 10 12 13 8 9 14 5 4 11 16 14 19 19 17 20 21 16 11 13 15 17 21 28 29 30 34 33 50 55 54 55 54 56
48 48 48 48 47 46 48 47 45 43 40 30 25 34 38 35 31 33 28 22 22 14 18 20 24 23 24 24 23 19 15 17 16 18 23 24 22 21 18 12 10 10 8 9 11 11 16 20 16 9 11 10 9 10 7 6 10 12 8 9 14 14 10 12 14 12 19 15 15 16 20 20 15 17 19 21 24 27 26 28 33 35 43 52 52 51 52 55
48 48 48 48 44 41 41 36 41 46 44 42 41 39 36 32 29 25 22 22 11 9 14 20 19 19 19 21 20 17 13 16 15 21 22 22 20 19 18 11 7 9 12 13 10 7 8 12 12 11 12 9 7 12 14 12 9 7 16 15 16 17 14 12 15 14 15 12 14 14 17 20 19 19 19 27 26 25 38 41 35 32 49 49 52 51 53 54
48 49 48 47 45 45 42 23 36 35 41 43 42 35 24 22 24 23 22 18 10 7 10 16 15 17 18 20 18 13 11 15 16 21 21 20 21 17 16 14 14 12 11 14 9 8 10 7 11 13 17 8 7 11 15 13 11 8 16 16 16 15 20 12 13 14 12 13 15 13 15 18 17 27 32 34 31 27 37 35 42 42 45 50 49 50 53 54
48 48 49 47 47 47 44 42 39 40 44 43 40 31 24 20 20 20 18 17 13 10 13 12 14 18 18 18 16 14 12 12 15 20 21 21 18 15 13 12 11 14 12 17 12 12 9 6 7 12 12 13 10 13 14 14 13 9 9 16 17 14 13 14 11 13 13 13 13 17 18 19 24 28 33 32 37 37 35 39 41 40 44 50 49 51 52 54
48 48 47 46 47 45 44 47 46 45 47 44 32 25 23 21 19 24 16 12 12 10 9 11 17 18 18 17 16 15 12 11 15 18 19 20 17 19 12 10 10 11 15 20 10 10 10 7 7 11 12 10 12 13 12 14 11 8 9 9 21 16 15 14 10 13 12 11 17 10 19 17 24 38 35 36 38 41 40 41 42 41 42 47 50 50 51 55
48 49 50 51 49 48 49 46 48 49 47 36 25 22 19 21 21 18 15 13 11 10 8 8 11 15 17 16 17 15 14 18 14 18 18 17 18 16 16 11 10 9 11 13 20 19 6 9 11 10 10 8 8 10 11 9 8 7 7 9 12 24 22 15 23 20 19 15 15 24 20 25 32 36 37 38 37 40 40 44 45 45 46 50 52 54 55 56
47 50 51 49 46 48 47 45 48 50 45 32 23 14 15 18 16 14 14 13 10 7 6 6 7 10 15 15 16 15 16 15 13 17 18 16 14 14 13 12 10 9 12 13 21 14 8 10 10 9 9 8 9 10 8 9 15 19 5 8 9 16 20 20 26 24 24 18 14 27 29 32 33 35 35 35 35 38 42 45 44 46 49 52 53 54 55 55
44 46 47 47 44 44 47 45 44 47 43 32 21 15 16 14 11 10 16 8 5 3 2 3 7 7 12 12 15 12 17 16 21 15 25 19 17 14 13 13 12 9 8 14 17 12 14 16 14 11 8 8 10 10 7 8 11 19 16 8 7 11 22 26 16 22 18 14 16 18 24 24 21 25 33 34 36 42 44 44 48 47 48 51 52 51 52 54
46 45 44 40 36 40 38 41 45 44 37 26 22 24 14 10 10 9 10 9 9 2 2 8 11 4 8 8 11 12 15 16 20 22 30 16 24 30 17 16 15 12 9 9 14 20 14 14 17 19 12 9 9 8 7 7 9 10 15 16 15 25 19 17 19 19 19 18 15 13 14 19 21 25 29 35 37 43 45 47 47 47 48 49 51 52 53 54
47 44 41 36 38 40 42 43 43 40 33 23 20 18 15 12 12 9 8 9 8 6 8 8 10 7 4 8 7 9 14 18 24 26 18 33 22 33 29 29 31 17 12 10 13 23 26 18 17 14 12 10 9 10 15 11 7 8 13 15 15 19 20 21 20 15 18 17 17 17 8 10 32 32 29 40 41 43 45 46 46 46 47 49 50 51 52 53
46 41 40 43 41 44 45 48 42 37 29 19 15 15 11 9 7 6 8 10 9 9 10 10 9 9 5 4 3 8 13 19 30 36 25 32 24 30 29 31 30 28 27 14 11 13 22 29 19 16 14 12 20 14 12 11 16 11 11 14 17 26 20 19 31 16 15 16 13 13 10 25 35 38 31 31 42 42 44 45 44 46 48 49 49 51 52 52
45 39 40 44 40 47 50 45 38 29 27 24 18 9 6 5 6 6 6 7 9 11 13 14 12 10 10 8 4 6 12 15 19 31 31 28 27 26 31 33 27 29 29 25 14 18 20 24 21 22 16 16 13 14 12 10 10 13 13 12 12 20 20 16 16 16 17 15 17 15 15 29 38 38 37 36 41 42 42 44 44 45 47 48 49 50 51 50
38 36 36 42 45 48 45 38 33 31 26 21 16 11 7 20 5 8 6 6 8 12 14 14 14 10 11 9 7 9 9 13 21 30 31 33 35 29 31 28 28 27 33 31 21 37 32 29 23 19 19 23 19 17 19 16 12 10 10 12 8 15 16 21 17 22 23 14 15 20 21 27 38 40 40 40 40 40 42 43 43 44 46 45 47 45 47 47
43 31 37 41 45 42 37 31 33 32 31 25 20 12 7 5 5 7 9 13 16 16 16 15 12 8 10 11 12 10 10 13 25 23 25 24 40 35 26 26 29 30 33 30 16 29 32 23 23 21 19 23 22 22 20 21 17 12 11 15 17 17 17 19 22 27 23 22 18 19 19 30 38 39 43 42 41 42 42 44 45 46 46 46 46 47 47 47
34 29 37 37 42 37 34 27 26 28 29 25 25 21 18 15 12 9 11 16 17 17 18 17 13 6 8 11 14 12 11 17 10 10 26 23 24 24 27 29 28 26 28 37 28 32 24 26 22 20 24 22 25 25 21 23 24 24 24 25 17 14 21 27 27 30 20 21 17 19 20 25 42 41 39 43 46 46 46 45 50 47 48 46 47 47 48 49
39 39 32 34 37 41 33 32 30 28 29 34 32 25 21 17 16 15 13 15 15 13 15 15 11 9 8 8 10 8 7 6 19 11 30 26 24 26 28 27 28 35 29 36 43 27 23 28 24 18 19 20 22 21 20 25 26 27 24 23 26 16 28 34 20 25 21 24 20 24 27 35 37 40 45 45 45 45 47 49 48 49 48 46 45 47 48 48
32 22 26 27 31 34 32 34 33 36 32 33 31 27 22 22 18 16 13 13 17 18 17 13 14 13 12 14 13 8 9 12 11 15 17 26 23 25 27 26 27 29 37 40 39 30 28 34 28 25 22 20 24 32 31 26 24 25 26 28 28 31 29 24 30 27 23 29 28 32 32 36 35 38 44 45 46 45 48 47 48 48 49 49 49 49 49 51
32 23 24 22 30 33 28 39 32 29 33 35 29 31 30 29 23 19 18 20 14 18 18 18 16 19 20 17 21 17 12 11 8 9 11 28 28 31 25 24 26 31 45 38 35 31 29 26 29 30 27 22 20 25 28 26 26 25 27 29 29 31 37 31 23 22 27 29 24 35 38 37 40 41 43 44 45 48 48 48 49 49 50 51 51 51 51 50
23 28 29 30 30 28 29 30 33 32 34 31 33 34 31 28 25 25 21 18 12 17 20 17 16 14 13 15 19 21 18 17 16 20 11 19 21 22 21 26 27 40 39 28 30 30 34 25 29 30 24 24 23 23 25 26 25 25 27 29 31 30 34 36 36 36 30 25 21 38 38 38 40 41 43 44 45 45 47 49 50 50 51 50 50 50 50 48
28 29 30 33 30 38 35 37 39 36 35 32 32 32 33 32 31 22 23 25 19 22 19 25 21 15 14 11 14 16 26 24 26 25 31 31 34 31 28 30 30 28 25 26 26 33 30 26 32 29 27 23 22 22 25 25 26 25 28 28 30 31 33 35 37 39 39 39 39 39 40 40 41 41 43 45 47 47 48 49 50 49 49 49 49 50 48 47
25 27 28 35 31 33 33 36 38 36 31 33 29 33 31 32 25 22 27 29 26 28 24 27 31 16 19 24 30 32 34 35 34 33 36 32 33 32 31 33 39 33 24 34 32 33 30 32 37 36 27 27 25 24 23 23 26 27 28 28 30 31 30 33 34 37 41 39 39 39 38 38 40 42 43 43 42 41 41 40 38 39 42 43 47 49 49 47
35 31 37 32 20 26 34 32 31 31 28 29 30 32 32 29 28 30 23 23 25 27 26 29 26 27 26 27 28 27 26 31 32 31 29 28 27 33 32 31 25 32 31 29 38 41 39 30 33 32 27 25 26 26 24 26 27 28 29 30 30 31 30 32 31 32 33 35 37 35 35 36 40 41 36 36 37 38 37 37 36 36 37 39 42 42 43 47
38 36 37 32 22 26 26 27 27 27 26 31 34 33 30 30 28 28 25 23 27 23 25 26 29 27 30 28 27 26 25 26 28 27 26 23 22 20 22 25 24 29 34 37 42 36 41 34 27 28 25 22 24 26 26 29 30 27 28 29 33 30 30 32 33 33 33 35 32 30 35 39 39 38 36 36 37 37 37 37 36 34 35 35 35 35 37 37